This is the latest recevied weather packets stored in our database for station/object EA7OC-10. If no packets are shown the sender has not sent any weather packets the latest 10 day(s).
| Time | Temp. | Humidity | Pressure | Rain* | Wind** | Luminosity | Snow |
|---|---|---|---|---|---|---|---|
| 1777632171 | 30.56° C | 34% | 1019.9 hPa | - | - | - | - |
| 1777631271 | 31.67° C | 33% | 1020 hPa | - | - | - | - |
| 1777630371 | 32.78° C | 34% | 1020.2 hPa | - | - | - | - |
| 1777629470 | 32.22° C | 34% | 1020.5 hPa | - | - | - | - |
| 1777627670 | 31.67° C | 35% | 1020.5 hPa | - | - | - | - |
| 1777626769 | 31.67° C | 35% | 1020.4 hPa | - | - | - | - |
| 1777625868 | 30.56° C | 35% | 1020.5 hPa | - | - | - | - |
| 1777624498 | 29.44° C | 36% | 1020.4 hPa | - | - | - | - |
| 1777623598 | 27.78° C | 37% | 1020.4 hPa | - | - | - | - |
| 1777622698 | 26.67° C | 36% | 1020.3 hPa | - | - | - | - |
| 1777621798 | 27.22° C | 35% | 1020.4 hPa | - | - | - | - |
| 1777620896 | 26.67° C | 37% | 1020.5 hPa | - | - | - | - |
| 1777619996 | 25° C | 37% | 1020.5 hPa | - | - | - | - |
| 1777619096 | 23.89° C | 38% | 1020.3 hPa | - | - | - | - |
| 1777618196 | 21.11° C | 38% | 1020.2 hPa | - | - | - | - |
| 1777617296 | 19.44° C | 36% | 1020.1 hPa | - | - | - | - |
| 1777616396 | 18.33° C | 36% | 1019.9 hPa | - | - | - | - |
| 1777615495 | 17.78° C | 37% | 1019.5 hPa | - | - | - | - |
| 1777614595 | 16.11° C | 36% | 1019.4 hPa | - | - | - | - |
| 1777613695 | 15° C | 35% | 1019.3 hPa | - | - | - | - |
| 1777612795 | 14.44° C | 35% | 1019.3 hPa | - | - | - | - |
| 1777611895 | 14.44° C | 35% | 1019.2 hPa | - | - | - | - |
| 1777610994 | 14.44° C | 35% | 1019.2 hPa | - | - | - | - |
| 1777610092 | 14.44° C | 35% | 1019.1 hPa | - | - | - | - |
| 1777609191 | 15° C | 34% | 1019.1 hPa | - | - | - | - |
* Rain since midnight (hover to see other rain measurements)
** Current wind speed in m/s (hover to see current wind gust speed)